Location: Le Thouron
(44.0667°N, 6.4000°E)
Time: 14:03:04
(UTC+00:00)

Daily predictions for brighter satellites

Satellite Brightness Start Highest point End
(mag) Time Altitude Azimuth Time Altitude Azimuth Time Altitude Azimuth
CZ-4B R/B 4.4 19:51:08 10° S 19:54:42 50° W 19:58:10 10° NNW
Meteor 1-31 Rocket 3.3 19:53:15 10° S 19:56:34 49° W 19:59:56 10° NNW
Okean 3 Rocket 3.6 19:57:13 10° N 20:01:39 83° E 20:06:01 10° S
Cosmos 1241 Rocket 4.4 19:56:49 10° SSW 20:02:56 70° ESE 20:09:08 10° NE
BREEZE-M DEB 4.3 20:05:26 10° W 20:09:48 83° N 20:20:28 10° E
NOSS 2-3 (D) 3.9 20:07:31 10° SW 20:11:11 57° NW 20:14:56 10° NNE
USA 186 2.3 20:11:26 12° ESE 20:12:51 22° ENE 20:14:32 10° NNE
Okean-O 2.7 20:09:32 10° SSE 20:13:50 61° ENE 20:18:09 10° N
CZ-4 R/B 3.1 20:10:36 10° SSW 20:13:57 30° W 20:17:22 10° NW
Helios 1A Rocket 2.5 20:19:56 10° N 20:23:02 68° WNW 20:26:07 10° SSW
ADEOS 3.9 20:19:33 10° S 20:24:42 66° WSW 20:29:54 10° NNW
Cosmos 1758 4.1 20:22:00 10° NNW 20:25:33 45° W 20:29:05 10° SSW
SL-08 R/B 3.4 20:22:06 10° NNE 20:26:40 80° WNW 20:31:15 10° SSW
Cosmos 1238 4.4 20:24:55 10° S 20:28:24 59° E 20:31:28 10° NNE
NOSS 2-3 (C) 3.7 20:25:26 10° SW 20:28:48 57° NW 20:32:17 10° NNE
Cosmos 2344 3.6 20:23:48 10° SSW 20:31:49 56° ESE 20:38:47 10° NE
Cosmos 1500 Rocket 3.6 20:29:58 10° NNW 20:34:16 76° W 20:38:32 10° S
Cosmos 2285 Rocket 4.5 20:28:12 10° NNW 20:34:29 61° WSW 20:40:46 10° S
Cosmos 1703 2.6 20:31:58 10° S 20:35:07 86° E 20:38:18 10° N
Ariane Rocket 3.6 20:31:59 14° SE 20:36:01 42° ENE 20:40:48 10° N
MOS 1-B 4.4 20:30:27 10° SSE 20:36:15 87° WSW 20:42:06 10° NNW
USA 276 2.0 20:36:10 10° SSW 20:38:05 30° SE 20:40:14 10° ENE
Spot 2 Rocket 3.8 20:33:09 10° S 20:38:11 67° WSW 20:43:16 10° NNW
CZ-4B R/B 3.4 20:37:35 16° SE 20:40:22 43° ENE 20:44:11 10° N
Cosmos 1538 Rocket 4.2 20:36:05 10° SSW 20:41:15 75° WNW 20:46:31 10° NNE
Iridium 4 Rocket 3.6 20:37:43 12° SSE 20:42:21 54° E 20:46:59 10° NNE
Okean O Rocket 1.9 20:38:19 10° S 20:42:38 66° WSW 20:47:01 10° NNW
Terra 3.5 20:38:48 10° SSW 20:42:52 29° W 20:46:58 10° NW
CZ-4B R/B 4.3 20:38:45 10° SSW 20:43:46 40° W 20:48:46 10° NNW
USA 59 Rocket -0.2 20:41:23 10° SSW 20:45:11 42° SE 20:48:15 10° NE
Meteor 1-13 Rocket 4.4 20:40:11 10° S 20:46:00 62° E 20:51:52 10° NNE
Cosmos 1833 Rocket 2.7 20:40:50 10° NNW 20:46:31 83° WSW 20:51:06 16° SSE
Cosmos 923 Rocket 4.1 20:42:37 10° S 20:47:42 55° ESE 20:52:48 10° NNE
NOSS 2-1 (D) 3.5 20:46:09 10° SSW 20:50:02 40° ESE 20:53:08 10° NE
CZ-4B R/B 3.9 20:47:02 17° SE 20:50:50 53° ENE 20:55:55 10° N
Cosmos 1328 Rocket 3.6 20:53:52 17° SSE 20:57:02 56° E 21:01:17 10° NNE
Cosmos 1953 1.9 20:55:47 10° N 20:59:22 83° E 21:01:29 23° SSE
S3M 4.0 20:54:09 13° S 20:59:36 65° E 21:05:43 10° NNE
GP-B 3.0 20:58:30 10° N 21:02:54 84° E 21:06:09 18° S
CZ-2C R/B 3.3 21:05:29 23° E 21:06:03 25° ENE 21:08:22 10° NNE
BREEZE-M R/B 3.5 21:02:24 10° WSW 21:06:10 83° NNW 21:13:37 10° ENE
NOSS 2-1 (C) 3.1 21:05:45 10° SSW 21:09:48 53° SE 21:12:58 10° NE
Cosmos 2082 Rocket 3.3 21:04:44 10° N 21:09:48 33° NE 21:13:35 16° ESE
Cosmos 1709 Rocket 4.1 21:03:47 10° N 21:10:10 69° E 21:14:35 21° SSE
Cosmos 2278 Rocket 2.3 21:06:56 11° S 21:12:13 59° ESE 21:17:47 10° NNE
Cosmos 494 Rocket 4.1 21:09:00 16° S 21:13:00 57° ESE 21:18:08 10° NNE
Meteor 1-21 4.2 21:12:57 18° S 21:17:13 69° E 21:22:52 10° NNE
Timation 2 Rocket 4.4 21:15:13 20° SSE 21:19:15 44° ESE 21:25:24 10° NE
Cosmos 1666 Rocket 3.5 21:15:12 10° N 21:19:31 83° W 21:21:56 25° S
Helios 1A 4.4 21:17:26 10° NE 21:20:20 19° E 21:20:40 19° E
SPOT 3 Rocket 3.9 21:17:22 17° S 21:21:11 58° W 21:26:17 10° NNW
USA 238 DEB 3.5 21:15:35 10° SW 21:21:38 87° NW 21:28:20 10° NE
USA 238 3.5 21:15:48 10° SW 21:21:51 88° WNW 21:28:34 10° NE
Meteor 1-16 Rocket 4.3 21:16:24 10° N 21:22:02 68° ENE 21:25:27 25° SSE
Cosmos 1943 Rocket 2.2 21:18:24 10° SSW 21:24:03 86° WNW 21:29:44 10° NNE
Lacrosse 5 rocket 4.1 21:21:36 10° WNW 21:24:06 18° NNW 21:26:34 10° NNE
SL-8 R/B 3.5 21:22:58 10° SW 21:27:38 66° SSE 21:32:21 10° ENE
USA 245 4.4 21:35:12 19° SW 21:36:22 24° W 21:38:37 10° NW
Cosmos 1745 Rocket 4.5 21:31:12 10° NNW 21:37:22 58° W 21:42:08 17° SSW
Cosmos 1515 Rocket 3.5 21:36:36 34° SSE 21:38:16 62° E 21:42:33 10° NNE
Okean 2 3.1 21:42:54 36° SSW 21:44:24 85° W 21:48:16 10° N
Meteor 1-12 Rocket 4.3 21:39:02 10° N 21:44:46 73° E 21:47:41 31° SSE
Cosmos 1048 Rocket 4.2 21:43:50 32° SSE 21:45:57 52° ESE 21:51:04 10° NNE
Cosmos 1680 Rocket 3.9 21:41:19 10° SSW 21:46:26 63° WNW 21:51:37 10° NNE
Cosmos 1624 Rocket 4.0 21:42:37 10° NNW 21:47:57 80° WSW 21:50:25 33° S
Cosmos 1633 Rocket 3.8 21:45:04 10° NNW 21:49:17 48° W 21:51:28 25° SSW
Cosmos 2369 Rocket 3.8 21:50:39 16° ESE 21:51:01 16° E 21:54:20 10° ENE
COSMOS 2406 4.4 21:46:51 10° N 21:52:00 34° NE 21:55:18 19° ESE
Cosmos 1400 Rocket 2.6 21:48:57 10° N 21:52:34 61° ENE 21:53:10 51° SE
Cosmos 2056 Rocket 3.6 21:51:55 10° NNW 21:56:57 64° WSW 21:59:06 34° S
ARIANE 6 FM1 Upper Stage 3.9 21:58:06 26° E 21:58:06 26° E 22:00:49 10° ENE
IKONOS-2 4.4 21:56:08 10° NNE 22:00:13 64° ESE 22:01:06 49° SSE
Cosmos 1656 Rocket 4.0 21:59:36 35° SSE 22:01:13 46° ESE 22:06:30 10° NE
USA 215 4.1 22:01:06 10° E 22:07:17 48° NNE 22:13:30 10° NW
USA 276 3.3 22:08:33 10° W 22:10:45 33° NNW 22:13:13 10° NE
Okean 1-7 4.5 22:12:10 22° E 22:12:22 22° E 22:15:37 10° NE
Cosmos 2074 Rocket 4.0 22:09:49 10° N 22:16:02 71° E 22:18:40 36° SSE
Cosmos 1328 4.1 22:21:51 42° E 22:21:51 42° E 22:24:58 10° NNE
NOSS 3-1 (C) 3.3 22:21:46 38° ESE 22:21:52 39° ESE 22:26:40 10° NE
Helios 1B rocket 2.4 22:24:53 49° ENE 22:24:58 49° ENE 22:28:19 10° N
USA 308 3.4 22:26:25 30° NE 22:26:25 30° NE 22:28:39 10° NE
Lacrosse 4 Rocket 3.9 22:26:57 10° N 22:29:36 16° NE 22:32:15 10° E
USA 59 Rocket 2.4 22:31:47 10° WNW 22:33:46 14° NW 22:35:34 10° N
Cosmos 1441 Rocket 3.6 22:33:47 40° W 22:33:58 41° WNW 22:37:03 10° N
Okean 3 4.2 22:34:53 34° WSW 22:36:02 43° WNW 22:39:54 10° N
ATLAS 5 CENTAUR R/B 2.0 22:37:18 31° NE 22:37:18 31° NE 22:39:05 10° NE
Cosmos 1933 Rocket 4.0 22:33:16 10° NNW 22:37:28 51° W 22:38:23 43° SW
Nadezhda 1 Rocket 4.0 22:36:02 40° SSE 22:38:18 69° E 22:44:30 10° NNE
COSMOS 2455 4.0 22:38:34 25° ESE 22:39:03 25° ESE 22:43:51 10° NE
Cosmos 468 4.4 22:42:09 43° SSW 22:43:58 89° WNW 22:49:18 10° NNE
Cosmos 1110 Rocket 4.2 22:39:01 10° NNW 22:44:06 59° WSW 22:45:23 45° SSW
Exosat Rocket 4.1 22:44:00 40° S 22:46:13 72° ESE 22:53:59 10° NNE
Cosmos 967 Rocket 4.5 22:50:17 31° SSW 22:53:41 89° ESE 23:00:11 10° NNE
Cosmos 2082 Rocket 2.9 22:48:43 10° NW 22:53:55 40° WSW 22:55:23 34° SW
Cosmos 1452 Rocket 3.5 22:49:19 10° NNW 22:54:35 76° WSW 22:55:52 51° S
Cosmos 1610 Rocket 4.5 22:48:10 10° N 22:54:35 84° E 22:56:57 42° SSE
Helios 1A 4.2 22:51:28 10° N 22:55:04 34° WNW 22:56:22 27° WSW
SL-4 R/B 2.2 22:55:57 48° NNE 22:55:57 48° NNE 22:58:29 10° NE
ACS3 Solar Sail 3.0 22:50:48 10° NE 22:55:22 24° E 22:56:47 22° ESE
Cosmos 2278 Rocket 4.2 22:52:05 10° WSW 22:56:40 25° NW 23:01:17 10° N
Cosmos 614 Rocket 4.2 22:57:55 36° SW 22:59:53 63° WNW 23:04:55 10° NNE
Cosmos 2184 Rocket 4.4 22:56:48 10° NNW 23:02:54 54° W 23:05:24 34° SSW
Cosmos 2154 Rocket 4.3 22:58:04 10° NNW 23:04:07 57° W 23:06:28 36° SSW
ARIANE 5 R/B 2.5 23:05:10 63° SSW 23:05:44 73° WSW 23:10:10 10° NNW
Meteor 2-5 Rocket 4.1 23:04:24 42° SE 23:05:58 53° E 23:11:41 10° NNE
SL-8 R/B 4.3 23:05:25 10° W 23:10:03 55° N 23:14:44 10° ENE
CZ-2C R/B 4.3 23:07:09 10° N 23:11:44 52° WNW 23:13:09 38° WSW
SL-8 Rocket 4.2 23:05:58 10° N 23:12:03 59° E 23:14:16 38° SE
SAR-Lupe-2 4.2 23:15:20 44° NE 23:15:20 44° NE 23:17:59 10° N
CZ-2C R/B 3.1 23:16:25 37° ESE 23:18:07 52° ENE 23:23:15 10° N
CZ-2C R/B 3.0 23:13:27 10° NNE 23:18:47 69° ESE 23:19:49 54° SSE
CZ-3B R/B 3.7 23:16:36 39° S 23:19:05 62° SE 23:40:21 10° NE
Meteor 2-15 4.4 23:15:18 10° N 23:21:23 73° E 23:23:25 43° SSE
SL-12 R/B(2) 4.4 23:15:35 20° SW 23:21:28 79° NW 23:31:09 10° NE
Cosmos 1733 Rocket 3.1 23:17:29 10° NNW 23:21:44 61° W 23:22:03 59° WSW
ALOS 2 2.7 23:21:23 55° SW 23:21:47 57° W 23:26:07 10° NNW
Cosmos 1707 Rocket 3.6 23:22:47 62° SW 23:23:20 70° W 23:27:44 10° N
Cosmos 2228 Rocket 2.9 23:26:00 73° S 23:26:23 86° E 23:30:49 10° N
Cosmos 1703 Rocket 4.2 23:26:16 41° ESE 23:26:34 41° E 23:30:43 10° NNE
Cosmos 2341 Rocket 4.0 23:20:29 10° N 23:26:43 73° E 23:28:53 42° SSE
Meteor 2-13 Rocket 4.4 23:27:03 46° S 23:28:59 78° E 23:35:06 10° NNE
IRIDIUM 104 4.3 23:26:14 10° N 23:31:27 76° W 23:32:38 53° SSW
USA 290 3.2 23:28:51 10° NNW 23:31:10 45° N 23:31:10 45° N
Cosmos 1356 Rocket 3.5 23:28:05 10° N 23:32:05 60° ENE 23:32:18 59° E
Cosmos 2369 Rocket 2.2 23:32:23 42° SW 23:34:19 74° WNW 23:39:56 10° NNE
Cosmos 1862 Rocket 4.1 23:34:20 43° WSW 23:34:57 46° WNW 23:39:06 10° N
ARIANE 6 FM1 Upper Stage 4.0 23:34:00 22° W 23:36:07 36° NW 23:39:56 10° NNE
COSMOS 2406 3.8 23:31:04 10° NW 23:36:19 40° WSW 23:37:19 37° SW
Cosmos 1315 Rocket 2.8 23:34:31 10° NNW 23:38:04 67° WNW 23:38:04 67° WNW
Cosmos 2297 3.7 23:36:40 44° SW 23:38:36 79° WNW 23:44:21 10° NNE
IRIDIUM 114 4.5 23:35:26 10° N 23:40:35 62° W 23:41:46 48° SW
USA 276 4.4 23:41:47 10° NW 23:43:57 22° N 23:46:16 10° ENE
Okean 1-7 4.2 23:48:24 29° W 23:49:08 31° WNW 23:52:55 10° N
USA 215 3.2 23:47:35 38° SSE 23:50:10 65° SW 23:56:39 10° NW
